Lid_Strength_Index
14 13 12 13 14 15 14 14 17 17 18 14 13 13 14 13 12 12 13 11 10 10 10 11 11 10 10 10 10 10 10 9 9 8 9 9 8 8 8 7 7 6 6 6
17 15 14 14 13 14 15 13 14 17 15 13 12 11 13 13 12 11 11 11 11 10 11 11 11 10 10 11 11 10 10 10 10 10 9 9 9 9 8 8 8 7 7 6
20 16 15 17 14 14 14 13 13 17 15 13 11 11 12 12 12 12 12 11 11 10 10 10 10 10 10 10 11 11 11 11 10 9 9 9 9 9 9 8 8 8 7 7
20 18 21 16 13 13 14 13 13 14 13 12 11 10 10 10 11 11 10 11 11 11 10 10 9 9 10 11 11 11 12 11 11 10 10 10 9 9 9 9 8 8 8 8
21 21 17 14 12 12 13 14 11 13 12 12 12 11 11 10 10 10 10 10 10 11 11 10 9 9 9 10 11 11 12 12 11 11 11 11 10 10 10 10 10 9 9 8
23 22 23 15 11 10 10 17 12 11 11 12 12 13 11 9 10 9 10 10 10 11 11 11 10 10 10 10 11 11 11 11 11 11 11 11 10 10 11 9 10 10 10 9
24 23 19 14 12 10 18 15 11 11 11 11 12 10 10 9 9 10 10 10 11 11 11 11 11 10 11 11 11 10 11 12 12 11 11 11 11 12 11 11 11 11 12 11
23 27 25 12 12 15 12 9 10 10 10 11 10 10 10 10 10 11 10 10 11 11 11 12 11 10 11 11 11 11 12 12 13 13 11 11 11 13 13 12 12 13 12 13
15 16 12 12 12 10 10 9 10 10 9 9 10 10 10 11 12 11 11 10 11 11 11 13 14 11 11 12 13 13 13 12 13 13 13 13 12 13 13 13 12 13 12 12
14 12 13 12 11 11 10 10 10 9 9 9 10 10 11 10 11 12 11 12 13 14 14 14 15 14 12 13 13 13 13 13 13 12 13 14 13 12 12 12 12 12 12 12
14 12 12 11 12 12 11 10 11 11 10 9 9 10 10 11 11 12 12 14 14 14 14 14 14 14 15 14 13 13 13 13 13 12 12 13 12 12 12 11 10 12 11 11
15 10 11 11 10 10 11 11 10 11 12 11 10 10 10 10 10 11 12 15 15 14 14 14 14 15 16 14 13 13 13 13 13 12 12 12 13 13 12 11 11 10 10 10
9 8 9 9 9 9 10 10 11 11 11 12 12 11 11 11 11 12 13 14 14 13 14 15 15 15 15 15 13 13 12 13 13 13 12 12 12 12 13 13 11 11 11 11
8 8 9 8 10 8 9 9 13 13 12 11 12 14 13 13 14 13 12 11 12 14 15 14 15 14 14 14 13 12 13 13 13 12 12 12 12 11 11 12 12 12 11 11
8 10 10 10 11 11 9 13 13 13 13 13 13 13 16 14 13 12 11 10 16 17 13 14 15 13 14 14 13 12 12 12 12 12 12 12 12 12 11 11 11 12 12 12
14 14 12 12 13 15 12 11 11 10 11 14 14 14 14 13 13 12 12 15 14 11 11 13 13 13 16 15 13 13 12 13 12 12 12 12 12 12 12 11 12 12 12 12
17 14 16 16 16 17 19 16 15 14 14 13 13 17 16 11 13 14 15 18 17 16 18 18 16 17 14 14 14 12 11 11 11 11 12 12 12 12 11 12 12 12 12 12
20 20 20 21 21 22 22 22 20 19 17 16 16 16 15 13 12 13 12 13 17 18 16 17 16 17 11 11 11 12 12 12 11 11 12 12 12 12 12 12 12 12 12 12
24 24 24 24 27 27 26 26 24 22 22 20 20 20 17 15 14 12 10 11 11 12 12 12 13 12 11 11 11 11 11 12 12 12 11 12 12 12 12 12 12 12 12 12
30 30 28 30 33 33 30 28 27 27 25 23 22 21 20 17 13 10 10 11 10 10 10 10 11 10 10 10 11 11 11 11 11 11 12 12 11 12 12 12 13 13 13 12
33 34 33 32 31 32 31 29 30 28 27 27 25 23 21 19 18 14 11 11 11 9 9 9 10 10 10 10 10 10 11 11 10 10 11 11 10 10 11 11 12 12 12 12
36 35 33 33 33 32 32 31 30 28 27 27 25 23 22 20 18 16 13 10 11 12 13 11 9 9 9 10 10 10 11 11 10 10 10 10 10 10 10 11 11 11 13 14
35 35 33 33 33 33 33 32 30 29 28 26 26 24 23 20 17 15 14 11 10 13 13 12 9 10 9 9 10 10 10 10 10 10 10 10 10 10 10 11 12 14 15 16
35 34 34 33 35 35 33 32 30 28 27 26 25 24 22 21 18 14 10 11 14 13 13 12 12 11 9 8 8 9 9 9 9 9 9 10 10 11 12 13 15 15 16 17
35 34 33 34 35 32 32 30 30 29 27 26 25 23 22 20 19 15 12 12 13 14 16 15 13 12 10 9 8 8 8 8 9 10 10 11 12 14 14 15 16 17 17 18
32 32 31 31 31 31 30 30 29 27 26 24 22 19 18 16 15 13 15 16 15 19 19 18 15 13 11 10 9 9 10 10 11 11 11 13 14 15 16 17 17 18 19 20
32 31 32 31 30 31 29 27 26 25 24 22 21 18 19 18 18 16 17 18 20 21 21 20 14 13 13 12 12 13 13 12 12 13 13 15 16 17 17 18 19 20 21 22